Location: Maiden
(35.5760°N, 81.2120°W)
Time: 18:22:37
(UTC-04:00)

Cosmos 1842 - Pass Details

Date: 14 June 2018
Orbit: 522 x 540 km, 82.5° (Epoch: 19 September)

Event Time Altitude Azimuth Distance (km) Brightness Sun altitude
Rises 21:28:43 0° 190° (S) 2,646 6.5 -8.8°
Reaches altitude 10° 21:30:51 10° 192° (SSW) 1,759 5.6 -9.1°
Maximum altitude 21:34:42 72° 277° (W) 554 3.5 -9.8°
Drops below altitude 10° 21:38:34 10° 2° (N) 1,765 6.4 -10.4°
Sets 21:40:43 0° 5° (N) 2,656 7.3 -10.7°
